Temp
71 72 70 73 63 60 57 60 68 71 73 75 76 73 67 67 66 57 68 72 75 73 75 78 80 80 80 80 79 79 78 78 78 78 79 79 79 79 79 79 80 80 80 80 80 80 80 80 80
72 73 71 66 58 50 54 63 65 70 76 77 77 73 69 65 70 66 68 74 77 74 73 75 80 80 80 79 79 78 78 78 78 78 78 78 79 79 79 79 80 80 80 80 80 80 80 80 80
73 75 68 60 53 54 57 64 68 75 77 78 75 76 71 67 71 69 70 74 77 73 71 75 79 79 79 79 79 78 78 78 78 78 78 78 78 78 78 79 80 80 80 80 80 79 79 80 80
73 70 66 59 54 65 68 69 75 75 75 76 74 69 74 77 75 73 74 73 73 72 73 78 79 79 79 79 79 79 78 78 78 78 78 78 78 78 78 78 79 79 80 80 79 79 79 79 79
69 63 57 52 54 64 69 72 74 71 69 71 73 68 68 75 75 74 73 73 72 72 72 75 79 79 79 79 79 79 78 78 78 78 78 78 78 78 78 78 78 79 79 79 80 79 79 79 78
65 61 54 50 57 65 66 72 77 71 70 72 71 69 66 73 74 73 74 71 73 73 73 74 78 79 79 79 79 78 78 78 78 78 78 78 78 78 78 78 78 79 79 79 79 79 78 78 78
63 58 52 53 58 63 68 71 71 71 69 69 74 66 67 72 74 75 72 70 71 72 72 72 74 77 79 79 78 78 78 78 78 78 77 78 78 78 78 78 78 79 78 78 79 78 78 78 77
65 61 56 56 60 61 69 71 72 72 71 81 81 66 64 73 77 74 71 68 69 70 71 71 71 72 73 73 79 78 78 78 78 78 78 78 78 78 78 78 77 79 78 79 79 78 78 78 77
67 57 54 59 63 63 68 68 75 78 76 77 82 77 78 79 77 72 69 67 66 71 68 69 70 70 71 72 75 78 79 79 78 78 78 76 72 72 75 77 78 79 79 79 78 78 78 78 78
64 56 62 69 68 66 72 71 74 74 72 73 76 79 79 78 75 71 70 69 67 68 69 69 69 70 70 78 72 72 73 73 73 73 72 71 71 71 77 77 78 78 79 78 78 78 78 78 74
63 63 68 71 71 75 71 70 75 71 67 73 74 75 77 76 75 74 74 73 72 71 71 71 69 70 70 72 71 70 71 71 71 72 71 70 73 72 72 72 72 72 76 73 74 73 73 71 71
63 68 71 69 72 72 70 75 73 71 73 80 82 79 78 76 75 75 74 73 72 72 73 73 72 70 70 72 71 70 70 70 70 71 72 70 70 71 71 71 71 71 71 71 71 71 73 72 73
62 66 70 71 68 68 72 69 71 69 77 81 81 81 78 77 75 76 75 75 74 73 74 74 73 71 72 72 71 70 69 70 70 71 71 71 69 69 69 69 69 69 69 69 69 69 70 70 71
66 66 64 67 65 67 68 68 70 75 78 77 78 74 74 74 74 73 75 74 74 75 75 75 75 74 73 72 71 71 71 70 71 70 70 70 68 68 68 67 68 68 68 68 67 67 67 67 68
69 61 66 66 65 64 69 67 67 73 76 73 73 72 73 73 73 71 72 72 73 73 74 74 74 75 73 71 71 71 72 71 69 69 70 70 68 67 66 66 66 66 66 66 66 66 66 65 67
64 61 56 62 66 68 67 60 70 73 73 71 72 73 72 71 71 72 72 71 72 72 73 74 79 72 72 71 70 71 69 69 68 67 68 69 69 67 65 65 63 64 64 64 63 63 63 64 63
59 53 52 60 66 65 62 61 71 73 73 70 70 71 71 69 69 70 71 70 71 71 71 71 71 71 71 70 70 68 66 65 64 65 65 66 68 66 63 62 62 63 62 62 62 62 61 62 62
55 55 52 58 66 64 59 59 68 70 72 71 70 69 69 69 68 70 70 71 70 69 69 70 70 69 69 69 68 66 64 63 63 62 63 63 63 64 61 60 61 61 60 61 61 60 61 60 61
60 57 57 63 68 63 63 61 69 68 69 68 68 68 68 68 68 69 70 70 69 68 68 68 69 69 70 68 66 64 61 61 60 60 62 62 62 62 59 59 59 58 57 57 59 59 58 60 61
60 57 59 64 65 63 59 62 67 68 70 71 70 68 68 64 65 66 66 67 67 65 65 65 66 67 70 70 65 64 62 59 59 59 60 61 62 61 60 57 56 56 56 57 56 57 56 56 57
57 57 58 63 65 63 62 57 61 68 69 72 72 70 69 66 65 66 64 63 63 64 64 64 65 65 66 66 66 62 61 59 58 58 58 60 61 61 60 59 57 56 55 55 55 55 55 53 55
55 67 67 66 59 53 60 47 57 64 67 69 71 67 67 66 66 66 64 62 62 62 63 62 63 63 64 63 65 62 58 56 55 55 56 58 61 61 61 60 58 56 55 55 55 57 55 54 52
64 68 66 63 55 52 53 51 54 60 61 67 67 69 68 67 66 64 64 63 62 61 60 60 60 60 61 61 61 59 57 55 55 55 56 57 57 60 62 60 59 58 56 56 56 55 54 53 52
70 64 58 52 50 46 50 51 51 53 63 71 71 71 70 68 66 65 65 63 61 60 59 59 59 57 58 60 59 59 57 55 55 54 55 55 55 56 59 61 58 57 57 56 55 55 55 53 53
62 54 44 43 43 44 52 50 55 60 64 65 70 70 71 69 66 64 64 62 59 58 57 58 57 56 57 58 57 57 56 56 56 55 54 54 55 55 57 57 57 57 57 57 56 55 54 53 52
55 55 46 40 39 45 51 47 55 65 65 64 68 72 69 67 66 66 64 63 61 60 59 58 57 55 56 57 56 56 56 55 55 55 55 55 55 56 57 57 57 58 58 57 56 55 56 57 52
59 53 56 46 42 43 46 53 62 65 63 64 64 66 65 66 66 65 66 64 60 60 59 59 57 56 56 56 56 56 56 56 56 56 56 55 56 60 57 57 56 57 57 56 54 54 54 57 52
63 63 52 46 39 37 44 46 50 58 59 60 61 61 62 63 64 65 65 63 62 62 60 59 59 59 58 58 58 58 57 58 57 56 56 56 56 56 56 55 55 55 55 54 52 51 53 54 55
59 53 49 49 45 40 38 45 56 60 62 60 60 63 63 64 65 65 66 66 65 63 62 61 60 59 59 59 57 58 57 58 57 56 56 54 54 54 54 54 54 54 53 52 51 52 53 52 51
63 57 52 44 44 42 42 44 62 62 62 62 62 65 66 67 67 67 66 66 63 62 62 62 61 60 59 58 58 58 57 59 57 55 54 54 53 55 55 54 53 53 53 51 50 51 51 51 50
MSLP
1010.87 1010.74 1010.82 1010.87 1012.10 1012.07 1012.30 1011.87 1011.10 1010.23 1010.09 1010.35 1010.78 1011.13 1012.34 1013.23 1013.76 1014.86 1014.48 1014.83 1014.73 1015.13 1015.28 1015.42 1015.40 1015.33 1015.55 1015.74 1016.00 1016.22 1016.35 1016.49 1016.61 1016.68 1016.72 1016.75 1016.80 1016.84 1016.93 1017.02 1017.04 1017.04 1017.03 1017.00 1016.98 1017.01 1017.03 1017.03 1016.99
1010.78 1011.12 1011.20 1011.43 1012.19 1012.89 1012.36 1011.39 1010.69 1009.98 1009.90 1010.24 1010.79 1011.43 1012.31 1013.42 1013.86 1014.59 1014.88 1015.03 1014.99 1015.42 1015.66 1015.79 1015.64 1015.64 1015.83 1016.02 1016.22 1016.48 1016.68 1016.80 1016.83 1016.89 1016.95 1016.99 1017.03 1017.07 1017.09 1017.14 1017.14 1017.13 1017.13 1017.08 1017.04 1017.04 1017.03 1017.11 1017.08
1010.57 1010.79 1011.87 1012.20 1012.72 1012.42 1011.81 1010.95 1010.41 1009.84 1009.64 1009.86 1010.54 1011.39 1012.30 1013.57 1014.16 1014.35 1014.53 1015.09 1015.33 1015.76 1015.97 1015.98 1015.88 1015.93 1016.07 1016.32 1016.63 1016.82 1016.95 1017.03 1017.05 1017.07 1017.13 1017.19 1017.23 1017.26 1017.26 1017.28 1017.28 1017.22 1017.20 1017.21 1017.17 1017.10 1017.05 1017.10 1017.14
1010.88 1011.42 1012.13 1012.27 1012.58 1011.63 1010.95 1010.74 1010.27 1010.46 1010.36 1010.38 1011.07 1011.96 1012.49 1012.89 1013.44 1014.08 1014.81 1015.15 1015.82 1016.08 1016.07 1015.83 1015.85 1016.10 1016.30 1016.49 1016.75 1016.97 1017.03 1017.11 1017.19 1017.22 1017.28 1017.31 1017.34 1017.35 1017.36 1017.35 1017.34 1017.28 1017.19 1017.14 1017.13 1017.09 1017.00 1016.88 1016.86
1011.50 1012.31 1012.73 1012.86 1012.28 1011.50 1010.88 1010.53 1010.84 1011.13 1011.00 1010.81 1011.06 1012.55 1013.25 1013.63 1013.68 1014.11 1014.69 1015.38 1015.85 1016.15 1016.24 1016.10 1016.04 1016.16 1016.38 1016.57 1016.77 1016.92 1017.05 1017.20 1017.27 1017.30 1017.29 1017.33 1017.37 1017.43 1017.49 1017.46 1017.40 1017.37 1017.29 1017.21 1017.17 1017.15 1017.06 1016.91 1016.73
1012.10 1012.86 1013.37 1013.07 1012.40 1011.90 1011.27 1010.88 1010.56 1011.32 1011.70 1011.38 1011.79 1012.34 1013.95 1014.11 1014.09 1014.69 1015.04 1015.46 1015.70 1015.99 1016.09 1016.09 1016.16 1016.31 1016.44 1016.58 1016.73 1016.89 1016.99 1017.08 1017.23 1017.29 1017.33 1017.36 1017.40 1017.50 1017.54 1017.49 1017.42 1017.37 1017.33 1017.26 1017.21 1017.13 1017.05 1016.92 1016.79
1011.98 1013.01 1013.38 1013.22 1012.63 1011.90 1011.44 1010.82 1010.87 1011.66 1011.90 1011.38 1011.53 1012.78 1014.39 1014.72 1014.66 1014.74 1015.28 1015.80 1015.91 1016.03 1016.06 1016.23 1016.35 1016.36 1016.44 1016.55 1016.67 1016.78 1016.88 1016.96 1017.04 1017.23 1017.34 1017.40 1017.43 1017.51 1017.48 1017.40 1017.32 1017.28 1017.26 1017.16 1017.02 1016.96 1016.90 1016.77 1016.57
1011.37 1012.21 1013.10 1012.72 1012.24 1011.94 1011.67 1011.40 1011.39 1011.91 1011.33 1010.81 1011.14 1012.81 1014.13 1014.10 1014.56 1015.02 1015.48 1015.93 1016.08 1016.22 1016.22 1016.26 1016.33 1016.49 1016.64 1016.71 1016.74 1016.77 1016.96 1016.99 1017.10 1017.25 1017.35 1017.45 1017.45 1017.52 1017.53 1017.42 1017.25 1017.14 1017.01 1016.92 1016.87 1016.81 1016.76 1016.63 1016.38
1010.80 1011.91 1012.34 1012.12 1011.89 1011.68 1011.57 1011.55 1011.34 1010.90 1010.72 1010.43 1010.48 1011.52 1012.13 1013.34 1014.32 1015.27 1015.85 1016.39 1016.46 1016.37 1016.54 1016.52 1016.48 1016.63 1016.74 1016.85 1016.85 1016.89 1017.04 1017.15 1017.23 1017.36 1017.50 1017.68 1017.78 1017.66 1017.54 1017.30 1017.13 1017.05 1016.98 1016.91 1016.78 1016.63 1016.56 1016.35 1016.15
1010.61 1011.57 1011.04 1010.44 1010.49 1010.77 1010.92 1010.85 1010.73 1010.91 1011.20 1010.99 1011.02 1011.34 1012.39 1013.24 1014.13 1014.74 1015.47 1015.99 1016.35 1016.46 1016.41 1016.53 1016.60 1016.68 1016.85 1016.69 1016.86 1017.05 1017.23 1017.25 1017.32 1017.49 1017.75 1017.93 1017.87 1017.66 1017.40 1017.12 1016.93 1016.78 1016.76 1016.70 1016.58 1016.44 1016.29 1016.11 1015.97
1009.97 1010.06 1010.16 1010.07 1009.68 1009.51 1010.25 1010.68 1010.52 1010.88 1011.39 1010.86 1010.82 1011.87 1012.43 1013.20 1014.02 1014.42 1014.88 1015.18 1015.31 1015.96 1016.45 1016.46 1016.49 1016.53 1016.82 1016.77 1016.81 1017.04 1017.22 1017.31 1017.46 1017.65 1017.79 1017.88 1017.78 1017.71 1017.47 1017.27 1017.15 1017.05 1016.88 1016.81 1016.65 1016.50 1016.30 1016.18 1015.98
1009.72 1009.65 1010.00 1010.34 1010.22 1010.12 1010.16 1010.12 1010.73 1010.96 1010.59 1010.43 1010.76 1011.65 1012.57 1013.26 1013.63 1014.04 1014.65 1014.97 1015.37 1015.75 1015.98 1016.37 1016.27 1016.48 1016.70 1016.71 1016.89 1017.11 1017.35 1017.40 1017.55 1017.60 1017.65 1017.79 1017.95 1018.05 1017.99 1017.71 1017.55 1017.45 1017.30 1017.10 1016.92 1016.71 1016.48 1016.26 1015.97
1009.93 1010.38 1010.71 1010.68 1010.97 1010.76 1010.59 1010.96 1011.09 1011.23 1010.93 1010.80 1011.05 1011.75 1012.74 1013.34 1013.58 1014.02 1014.55 1014.80 1015.03 1015.50 1015.64 1015.98 1016.12 1016.43 1016.59 1016.72 1016.99 1017.14 1017.35 1017.54 1017.68 1017.75 1017.79 1017.87 1018.22 1018.39 1018.11 1018.05 1017.96 1017.85 1017.66 1017.51 1017.34 1017.10 1016.83 1016.52 1016.16
1010.11 1010.89 1011.59 1011.68 1011.83 1011.68 1011.36 1011.40 1011.29 1011.08 1010.85 1011.35 1011.32 1012.10 1012.60 1013.16 1013.43 1013.98 1014.48 1014.93 1014.92 1015.10 1015.54 1015.81 1015.98 1016.10 1016.44 1016.80 1017.16 1017.33 1017.49 1017.85 1017.91 1018.07 1018.19 1018.29 1018.40 1018.41 1018.45 1018.43 1018.30 1018.13 1017.98 1017.79 1017.61 1017.44 1017.18 1016.91 1016.50
1010.63 1011.82 1012.49 1012.49 1012.32 1012.21 1012.13 1012.16 1011.63 1011.06 1011.25 1011.65 1012.07 1012.68 1013.05 1013.42 1013.70 1014.04 1014.31 1014.71 1014.78 1015.19 1015.48 1015.84 1016.02 1016.13 1016.66 1017.14 1017.41 1017.56 1017.80 1018.05 1018.30 1018.52 1018.55 1018.54 1018.67 1018.77 1018.75 1018.75 1018.72 1018.65 1018.36 1018.09 1017.86 1017.59 1017.30 1017.14 1016.66
1011.01 1012.13 1012.80 1012.67 1012.81 1012.46 1012.88 1012.06 1011.39 1011.04 1011.23 1011.83 1012.51 1013.18 1013.71 1014.07 1014.34 1014.52 1014.65 1014.78 1015.25 1015.44 1015.94 1016.18 1016.40 1016.76 1017.10 1017.31 1017.69 1017.99 1018.33 1018.50 1018.80 1018.94 1019.04 1019.09 1019.02 1019.05 1019.11 1019.08 1019.14 1019.02 1018.73 1018.56 1018.34 1018.18 1017.85 1017.57 1017.16
1011.59 1012.19 1012.68 1012.70 1012.75 1012.82 1013.11 1012.07 1011.19 1011.08 1011.39 1012.36 1012.94 1013.52 1014.06 1014.53 1014.82 1014.96 1015.05 1015.27 1015.66 1015.91 1016.34 1016.63 1016.87 1017.22 1017.53 1017.70 1018.06 1018.67 1018.99 1019.20 1019.36 1019.38 1019.48 1019.50 1019.38 1019.44 1019.43 1019.55 1019.57 1019.32 1019.16 1019.00 1018.92 1018.62 1018.41 1018.14 1017.59
1011.31 1011.35 1011.83 1011.63 1011.87 1012.76 1012.90 1011.79 1011.28 1011.50 1011.69 1012.19 1013.02 1013.55 1014.14 1014.64 1014.98 1015.06 1015.26 1015.54 1015.94 1016.31 1016.69 1016.94 1017.27 1017.42 1017.69 1017.83 1018.38 1019.04 1019.33 1019.74 1019.87 1019.81 1019.83 1019.77 1019.73 1019.80 1019.89 1020.02 1019.97 1019.74 1019.59 1019.56 1019.32 1019.16 1018.86 1018.66 1018.19
1010.36 1010.58 1010.68 1010.05 1010.50 1011.73 1011.55 1011.71 1011.05 1011.46 1011.90 1012.39 1013.20 1013.85 1014.56 1014.68 1014.99 1015.20 1015.45 1015.75 1016.11 1016.49 1016.76 1017.02 1017.21 1017.57 1017.74 1018.13 1018.81 1019.38 1019.80 1020.23 1020.36 1020.27 1020.16 1020.12 1020.18 1020.27 1020.33 1020.41 1020.36 1020.25 1020.31 1020.27 1020.01 1019.72 1019.58 1019.17 1018.60
1009.75 1009.96 1009.95 1009.47 1009.49 1010.80 1011.47 1011.40 1011.38 1011.45 1011.00 1011.12 1012.22 1013.40 1014.04 1014.92 1015.49 1015.61 1015.69 1015.67 1015.86 1016.51 1016.90 1017.33 1017.49 1017.72 1017.88 1018.09 1018.74 1019.16 1019.91 1020.63 1020.71 1020.75 1020.68 1020.59 1020.60 1020.74 1020.83 1020.90 1020.93 1020.82 1020.74 1020.56 1020.42 1020.28 1020.26 1019.99 1019.53
1009.18 1009.61 1009.61 1009.77 1010.22 1010.48 1011.13 1012.18 1011.68 1011.35 1011.26 1011.76 1012.42 1012.95 1013.52 1013.88 1014.74 1015.50 1015.92 1016.30 1016.44 1016.46 1016.57 1016.89 1017.32 1017.67 1017.86 1018.26 1018.90 1019.56 1020.10 1020.74 1021.16 1021.33 1021.35 1021.24 1021.13 1021.14 1021.10 1021.13 1021.19 1021.23 1021.15 1021.12 1020.91 1020.72 1020.71 1020.77 1020.17
1009.26 1008.78 1009.25 1009.65 1010.33 1010.86 1011.17 1012.78 1011.93 1011.33 1011.15 1011.57 1012.08 1012.80 1013.39 1013.93 1014.64 1015.11 1016.00 1016.69 1016.88 1017.00 1016.94 1017.06 1017.30 1017.67 1018.06 1018.36 1018.90 1019.47 1020.34 1021.17 1021.69 1021.73 1021.76 1021.62 1021.52 1021.45 1021.30 1021.28 1021.38 1021.48 1021.40 1021.31 1021.19 1021.04 1021.01 1020.91 1021.04
1008.42 1008.44 1009.31 1009.74 1010.77 1011.30 1011.89 1012.34 1011.34 1011.36 1011.68 1011.34 1011.36 1011.76 1012.34 1012.81 1013.54 1014.64 1015.68 1016.29 1016.91 1017.33 1017.65 1017.69 1017.65 1017.84 1018.18 1018.77 1019.00 1019.78 1020.69 1021.21 1021.56 1021.83 1021.90 1022.09 1021.97 1021.69 1021.52 1021.50 1021.48 1021.57 1021.63 1021.49 1021.47 1021.36 1021.33 1021.30 1021.42
1007.70 1008.92 1010.13 1011.23 1011.90 1012.75 1012.12 1012.34 1011.84 1011.38 1010.40 1009.93 1010.28 1010.76 1011.48 1012.39 1013.38 1014.49 1015.52 1016.34 1017.22 1017.54 1017.51 1017.81 1018.10 1018.53 1018.44 1018.95 1019.56 1019.88 1020.65 1021.35 1021.85 1022.18 1022.39 1022.40 1022.23 1022.00 1021.76 1021.76 1021.92 1021.80 1021.61 1021.56 1021.55 1021.45 1021.39 1021.45 1021.46
1007.91 1009.77 1011.51 1012.89 1013.57 1013.38 1012.40 1012.60 1011.28 1010.16 1009.76 1009.45 1009.34 1009.42 1009.92 1011.30 1012.84 1014.14 1015.26 1016.54 1016.92 1018.05 1018.58 1018.16 1018.47 1018.98 1018.98 1019.17 1019.75 1020.11 1020.51 1020.99 1021.57 1022.05 1022.29 1022.39 1022.32 1022.21 1022.07 1021.95 1021.95 1021.79 1021.64 1021.52 1021.55 1021.59 1021.51 1021.61 1021.74
1008.41 1009.55 1011.42 1012.94 1014.17 1013.69 1012.98 1012.03 1010.35 1009.62 1008.89 1008.14 1008.30 1009.08 1010.62 1011.51 1012.53 1013.48 1014.69 1015.73 1016.62 1017.56 1018.52 1018.53 1018.66 1019.05 1019.13 1019.28 1019.74 1020.15 1020.48 1020.86 1021.34 1021.71 1022.02 1022.22 1022.33 1022.29 1022.20 1022.14 1022.00 1021.81 1021.66 1021.67 1021.64 1021.58 1021.50 1021.43 1021.74
1008.40 1009.80 1010.79 1012.74 1014.19 1014.01 1012.90 1011.49 1010.29 1009.53 1009.16 1008.66 1009.05 1009.77 1010.88 1011.68 1012.45 1013.25 1014.38 1015.60 1016.92 1017.40 1017.89 1017.92 1018.26 1018.82 1019.09 1019.41 1019.83 1020.24 1020.51 1020.89 1021.36 1021.62 1021.89 1022.19 1022.34 1022.25 1022.46 1022.29 1022.31 1022.21 1022.10 1021.94 1021.89 1021.84 1021.68 1021.65 1021.67
1007.37 1008.89 1011.05 1012.76 1014.38 1014.64 1013.45 1012.34 1011.10 1010.12 1009.98 1009.95 1010.10 1010.44 1011.11 1011.91 1012.63 1013.27 1014.06 1015.24 1015.98 1016.36 1016.77 1017.33 1017.39 1017.65 1018.23 1018.70 1019.09 1019.72 1020.40 1020.92 1021.33 1021.75 1022.03 1022.14 1022.29 1022.37 1022.55 1022.50 1022.50 1022.44 1022.37 1022.19 1022.12 1022.05 1021.90 1021.83 1021.81
1008.24 1009.09 1010.96 1012.46 1013.66 1014.26 1013.80 1012.42 1010.04 1009.58 1009.47 1009.72 1009.99 1010.15 1010.50 1011.09 1011.63 1012.38 1013.32 1014.19 1014.90 1015.81 1016.37 1016.71 1017.16 1017.45 1017.79 1018.39 1019.08 1019.66 1020.25 1020.58 1021.14 1021.70 1022.16 1022.39 1022.60 1022.65 1022.75 1022.71 1022.70 1022.71 1022.68 1022.42 1022.43 1022.35 1022.24 1022.14 1022.02
1007.47 1008.73 1010.30 1012.51 1013.98 1014.12 1013.38 1011.15 1009.24 1009.14 1009.15 1009.24 1009.35 1009.65 1010.04 1010.31 1010.74 1011.46 1012.40 1013.47 1014.48 1015.26 1015.87 1016.22 1016.98 1017.39 1018.04 1018.49 1019.19 1019.74 1020.18 1020.54 1020.61 1021.71 1022.08 1022.27 1022.50 1022.75 1022.62 1022.76 1022.77 1022.75 1022.75 1022.75 1022.73 1022.68 1022.57 1022.51 1022.38
Wind_Speed
4 2 2 3 5 5 3 2 1 3 3 4 4 3 9 3 1 4 2 4 8 6 5 7 11 14 14 13 11 10 10 10 10 10 10 10 9 9 9 8 8 8 8 6 6 6 6 7 7
3 3 4 3 6 4 5 4 1 5 8 11 8 6 5 3 3 6 7 7 9 4 3 4 11 13 13 12 11 10 9 9 9 9 9 9 8 8 8 7 7 7 6 5 3 3 5 5 4
1 3 4 5 4 4 2 3 4 7 7 2 6 4 5 3 4 7 5 10 12 5 4 6 12 11 12 11 9 9 8 8 8 8 8 8 7 6 6 5 5 5 4 2 2 4 5 6 5
2 5 5 5 1 3 7 5 2 5 6 8 5 7 5 5 9 8 12 10 9 5 6 11 13 12 12 11 10 9 9 8 8 7 7 6 5 4 3 3 3 3 2 2 3 4 6 8 8
4 3 4 3 3 3 4 3 4 5 2 6 5 4 4 4 11 16 14 11 12 8 5 6 12 12 12 11 10 10 9 7 6 6 5 4 4 3 3 3 3 3 4 5 6 7 8 9 11
5 4 5 0 2 4 3 4 6 4 3 9 9 7 4 6 15 11 12 11 9 12 6 6 12 12 11 12 11 10 9 8 6 5 5 4 4 4 5 5 6 7 8 8 9 9 9 10 11
7 4 3 3 3 4 2 2 5 5 3 3 6 6 3 5 6 11 9 7 7 6 6 5 5 9 13 12 11 11 9 9 8 6 6 6 6 6 7 8 8 9 9 10 11 11 11 11 12
6 5 6 4 6 5 2 4 5 5 3 7 7 6 7 8 9 8 7 6 6 5 5 6 6 5 4 4 10 10 9 8 7 7 7 7 7 7 8 9 9 10 11 11 12 12 12 12 13
4 5 2 7 9 5 3 4 4 3 8 3 6 8 9 15 12 8 6 3 2 5 4 4 5 5 5 4 5 8 9 8 7 6 6 5 4 5 7 9 11 11 11 11 12 13 13 13 13
5 4 8 8 9 10 10 9 10 6 4 2 8 11 16 18 16 15 11 10 6 7 6 6 5 5 5 5 4 4 3 3 3 3 2 3 4 5 7 8 9 8 7 8 10 11 13 12 5
4 5 5 5 5 16 11 7 4 10 4 6 18 17 18 17 13 13 12 11 14 7 4 7 6 6 5 5 3 2 2 2 2 2 1 2 3 4 3 3 4 4 8 4 5 5 3 6 4
3 2 6 3 4 6 8 6 6 2 4 10 16 18 17 16 15 13 11 9 9 8 8 6 7 6 6 3 3 2 2 2 1 2 2 0 2 4 3 3 4 4 3 5 5 3 5 6 6
4 3 6 4 5 5 6 5 3 2 3 9 9 16 14 11 7 5 5 5 8 8 8 8 7 6 5 5 1 2 2 2 3 4 5 4 4 3 3 4 4 4 4 4 4 4 5 6 7
5 8 5 6 5 4 6 2 2 6 4 6 8 9 8 11 9 6 8 8 8 8 7 7 7 6 6 2 4 4 5 5 5 5 5 6 4 4 4 4 4 5 4 4 4 4 5 5 5
9 8 7 5 3 2 3 4 5 3 5 6 8 8 9 7 7 6 6 8 7 5 7 7 6 6 6 7 5 5 6 6 5 4 5 7 6 5 5 4 5 4 4 6 5 6 4 5 5
6 6 6 4 2 2 3 9 7 7 11 9 9 9 10 7 7 7 7 9 8 8 6 4 5 7 8 8 6 6 5 5 4 4 4 6 7 6 5 5 5 4 5 5 5 5 5 6 6
6 5 2 2 5 1 4 6 7 8 8 7 10 10 9 8 7 6 7 8 8 7 7 7 7 9 10 9 8 8 6 5 4 4 4 5 7 7 6 5 4 5 4 5 4 4 4 6 7
5 3 4 8 11 7 5 11 5 5 9 10 11 11 11 12 10 10 10 10 9 7 6 7 6 8 9 9 9 7 6 4 4 4 4 6 5 7 6 5 5 5 4 6 5 4 4 3 7
1 2 3 5 9 11 21 6 13 8 6 9 10 11 10 10 7 10 11 10 9 7 8 6 8 6 8 6 6 4 4 3 4 4 6 6 6 6 6 5 6 5 5 4 5 4 5 6 9
3 2 7 10 6 7 10 18 10 11 15 19 17 14 13 7 8 8 9 8 7 8 7 7 7 6 4 4 3 4 4 3 4 3 5 6 7 7 6 6 5 6 5 7 6 6 4 4 5
3 2 5 8 5 4 9 5 4 7 5 7 8 10 11 18 17 12 7 5 7 9 9 9 8 7 6 8 7 5 5 4 3 4 4 4 5 5 6 6 5 6 4 4 4 4 6 3 4
4 7 6 4 4 4 3 5 6 11 14 11 13 12 15 14 10 11 9 7 7 6 6 7 8 7 6 7 8 8 5 4 2 2 2 3 5 5 5 5 5 5 3 5 4 4 3 3 4
12 7 9 3 3 5 1 4 7 7 11 17 14 16 15 16 16 14 11 8 5 6 6 5 7 7 6 6 7 6 5 4 3 3 6 3 3 4 4 5 5 5 4 3 5 5 6 3 3
5 5 8 6 4 2 4 6 6 6 17 24 18 19 18 16 13 11 9 7 6 5 7 6 7 5 7 8 7 8 9 7 5 4 4 2 1 3 4 4 4 3 3 4 3 3 4 4 3
7 8 3 4 4 6 4 3 10 6 9 9 17 22 23 18 15 15 13 10 8 5 3 6 7 6 7 9 8 8 8 8 8 6 4 3 1 1 3 3 5 3 4 4 4 4 4 4 3
0 8 8 7 4 6 4 6 6 7 8 4 13 14 14 17 15 17 15 14 13 10 7 7 8 7 7 8 8 7 7 5 5 5 4 3 2 1 3 3 4 6 6 5 5 3 3 4 4
5 3 5 8 4 3 4 4 7 6 7 8 8 11 13 13 15 16 15 11 11 11 10 11 9 7 8 8 7 7 7 7 6 6 4 3 3 3 5 6 6 6 6 6 5 4 4 4 4
8 8 4 4 4 3 5 4 7 5 4 4 8 11 9 9 11 14 15 15 13 13 12 11 12 14 12 11 9 8 8 7 6 5 5 6 5 5 5 5 5 5 5 5 5 4 4 5 3
1 2 7 6 5 7 3 8 8 10 10 11 10 13 16 17 18 17 15 15 14 12 12 13 11 11 11 8 5 8 6 7 7 6 6 6 5 5 5 4 4 4 4 5 5 5 5 5 5
7 6 6 7 4 0 4 9 6 9 9 9 12 13 13 15 19 18 16 16 14 14 13 14 10 9 7 7 7 7 7 8 9 7 6 6 7 4 5 3 4 5 5 5 6 6 6 6 6
Wind_Direction
140 189 339 42 61 57 349 327 208 304 36 335 54 124 130 24 102 196 299 140 125 123 145 151 141 128 123 114 106 106 110 108 101 96 96 97 97 97 96 94 96 98 101 93 81 77 76 72 66
150 134 23 49 79 54 297 262 212 136 141 121 111 107 64 61 79 115 109 142 141 128 121 150 135 127 124 121 121 121 116 109 106 106 106 105 102 102 102 103 104 106 107 103 79 47 34 47 47
272 67 85 96 122 119 199 271 162 157 165 226 118 86 107 116 87 147 131 128 147 123 134 163 134 132 131 127 124 122 118 116 116 116 117 118 114 111 108 106 104 105 105 91 19 348 341 343 350
86 7 24 76 297 263 159 200 167 126 32 59 97 58 71 188 154 142 130 125 143 165 181 156 147 144 140 138 137 137 135 133 130 128 127 130 131 134 138 142 147 158 181 223 268 294 307 313 314
36 50 52 66 267 339 324 106 67 347 11 96 103 86 80 36 112 132 138 145 159 170 186 153 153 151 151 150 151 149 145 143 141 137 137 144 164 188 212 228 246 260 263 267 275 284 294 301 307
46 98 60 227 8 358 20 99 143 52 11 90 84 97 38 130 131 149 148 158 166 165 167 167 162 162 162 162 161 161 160 160 163 166 173 188 209 229 246 256 262 266 271 276 280 283 285 288 292
119 79 184 129 132 26 110 347 51 80 254 51 153 87 89 161 166 148 148 151 164 165 157 167 170 176 174 173 172 173 174 177 181 192 204 219 232 241 251 257 263 269 271 271 271 273 275 277 278
114 109 138 218 171 172 50 23 85 201 323 176 122 154 179 200 157 131 125 151 159 169 175 175 176 187 181 184 186 187 194 197 201 213 225 236 250 263 273 276 274 275 276 281 286 287 286 284 283
141 66 166 181 155 167 153 146 214 198 173 225 152 131 165 150 138 127 127 134 159 180 199 199 189 188 182 195 213 209 213 220 226 241 261 284 305 297 290 279 278 277 278 284 290 287 287 284 283
107 121 213 187 164 166 173 180 169 145 188 355 77 101 133 150 159 162 169 179 189 200 200 195 195 196 187 205 206 209 234 242 242 249 312 335 304 299 308 311 324 328 316 301 309 309 305 297 281
177 197 178 211 192 164 157 177 204 143 190 196 147 149 159 163 174 173 181 188 187 193 194 194 201 193 192 232 198 193 208 241 269 304 339 302 314 345 11 30 32 22 31 16 7 351 344 331 301
175 21 121 155 173 122 165 96 112 225 226 167 152 154 165 173 181 185 180 176 168 178 188 193 200 193 203 223 205 204 202 246 282 294 282 156 32 41 24 37 25 22 9 9 6 354 345 346 342
100 61 75 81 10 47 55 64 81 12 18 136 142 149 174 182 185 178 177 170 158 177 181 191 192 185 202 225 167 221 185 77 78 72 62 69 62 51 44 33 23 19 9 13 2 353 349 342 343
117 87 60 25 4 359 112 4 13 192 148 124 139 131 145 150 166 128 157 179 166 164 173 168 196 176 186 136 90 95 82 81 73 65 61 62 71 67 49 33 26 28 15 7 6 358 353 346 339
105 86 48 338 342 309 152 336 250 199 138 104 111 117 117 114 110 133 144 135 137 124 127 152 144 140 117 112 103 86 87 79 75 71 64 64 55 59 53 40 31 17 10 9 6 4 354 359 346
74 62 119 242 343 282 6 242 219 194 163 149 134 134 125 100 107 96 90 91 85 91 109 138 108 111 115 110 93 88 78 79 65 58 52 58 62 58 52 53 37 13 18 15 8 8 1 358 347
351 158 180 14 197 271 184 239 234 183 171 150 154 148 140 123 106 105 100 100 96 94 102 102 107 116 114 107 98 87 78 71 64 66 64 61 63 58 61 50 29 21 23 20 7 4 7 5 346
176 140 159 176 212 228 212 263 260 178 174 174 160 156 153 151 154 141 123 116 113 107 104 105 114 116 113 109 103 95 82 49 44 64 68 67 62 59 62 51 40 28 30 21 10 10 356 358 338
122 140 280 248 200 162 218 238 222 171 166 165 170 165 173 168 161 147 140 132 119 115 116 127 120 126 128 119 117 99 91 79 60 62 70 68 65 59 59 49 39 29 42 21 15 355 360 2 350
151 13 295 286 143 148 175 228 230 186 199 187 176 178 175 153 164 162 158 156 142 129 115 113 115 134 129 98 105 119 128 97 89 64 62 64 64 61 68 66 50 37 39 25 24 25 359 351 6
329 223 255 218 146 67 116 339 198 232 192 188 206 199 178 173 170 172 156 141 143 146 147 142 138 128 116 120 113 87 72 64 55 34 47 38 75 75 73 63 58 46 44 33 21 24 40 16 336
243 208 212 243 117 184 142 234 246 216 215 204 200 192 189 179 167 161 160 163 160 156 128 120 122 119 121 131 129 134 127 128 162 136 107 68 53 71 71 67 63 56 41 38 13 15 24 64 23
227 169 188 158 119 107 282 99 255 138 229 223 208 203 196 181 171 166 162 158 157 135 129 112 110 108 124 121 130 128 110 115 125 98 93 62 18 34 56 50 32 33 20 11 32 21 18 24 32
131 97 51 49 83 54 236 131 283 186 213 228 208 204 196 182 165 154 151 143 121 139 138 128 117 110 120 120 130 129 126 131 124 118 115 111 18 5 21 29 28 357 352 349 355 8 20 21 42
80 66 353 347 11 204 160 76 234 265 233 209 222 208 195 173 157 159 158 145 159 145 178 138 129 122 124 121 122 129 129 138 142 154 159 157 135 11 25 28 13 357 352 348 1 359 5 24 33
185 145 153 197 204 243 205 228 253 254 299 301 219 208 166 170 171 166 159 166 160 173 179 152 141 138 133 124 129 132 136 128 146 165 157 154 158 111 19 30 30 25 28 24 17 356 354 56 24
181 157 180 102 15 72 260 289 332 329 346 64 94 141 174 173 171 162 165 166 168 178 181 166 151 148 145 139 138 145 138 145 156 160 141 134 83 64 46 44 45 35 32 29 14 15 30 28 18
159 155 80 14 138 230 291 273 240 253 221 157 154 170 167 154 161 173 176 173 184 180 175 173 169 166 163 161 162 160 157 153 145 133 112 96 96 82 66 49 39 24 16 22 27 20 7 23 4
317 94 52 112 126 162 212 263 219 216 199 193 198 184 175 179 183 182 181 179 183 179 180 181 180 167 169 159 131 140 156 133 123 115 111 103 92 82 75 71 56 31 14 19 21 4 19 13 360
167 163 131 117 240 176 172 261 214 230 212 202 204 199 199 194 186 186 179 178 182 185 185 185 176 166 160 142 152 158 139 138 124 113 112 112 110 121 99 62 50 30 26 27 26 16 3 3 351